Location: Boćki
(52.6512°N, 23.0459°E)
Time: 13:58:13
(UTC+01:00)

Envisat - Visible Passes

Search period start: 21 November 2019 00:00
Search period end: 01 December 2019 00:00
Orbit: 764 x 766 km, 98.1° (Epoch: 21 November)

Date Brightness Start Highest point End Pass type
(mag) Time Alt. Az. Time Alt. Az. Time Alt. Az.
21 Nov 4.9 05:44:57 10° NNE 05:49:37 35° E 05:54:14 10° SSE visible
21 Nov 2.9 17:05:12 10° SSE 17:10:17 80° ENE 17:15:24 10° NNW visible
21 Nov 5.7 18:46:29 10° SW 18:49:57 18° W 18:53:25 10° NW visible
22 Nov 5.9 05:08:57 10° NE 05:12:27 18° E 05:15:56 10° SE visible
22 Nov 3.3 16:28:52 10° SE 16:33:38 42° ENE 16:38:25 10° N visible
22 Nov 4.6 18:08:10 10° SSW 18:12:46 34° W 18:17:25 10° NNW visible
23 Nov 3.9 06:10:15 10° NNE 06:15:16 55° E 06:20:15 10° S visible
23 Nov 3.4 17:30:45 10° S 17:35:48 66° WSW 17:40:54 10° NNW visible
23 Nov 6.2 19:14:23 10° W 19:15:51 11° W 19:17:18 10° WNW visible
24 Nov 5.2 05:33:51 10° NNE 05:38:14 29° E 05:42:37 10° SSE visible
24 Nov 2.9 16:54:00 10° SSE 16:59:01 66° ENE 17:04:05 10° N visible
24 Nov 5.4 18:34:37 10° SW 18:38:31 22° W 18:42:27 10° NW visible
25 Nov 6.0 04:58:06 10° NE 05:01:01 15° E 05:03:54 10° ESE visible
25 Nov 3.5 16:17:50 10° SE 16:22:25 36° ENE 16:27:03 10° N visible
25 Nov 4.3 17:56:37 10° SSW 18:01:25 41° W 18:06:15 10° NNW visible
26 Nov 4.3 05:59:02 10° NNE 06:03:56 45° E 06:08:48 10° S visible
26 Nov 3.1 17:19:24 10° SSE 17:24:30 80° WSW 17:29:38 10° NNW visible
26 Nov 6.0 19:01:49 10° WSW 19:04:23 14° W 19:06:57 10° NW visible
27 Nov 5.5 05:22:46 10° NE 05:26:51 24° E 05:30:56 10° SE visible
27 Nov 3.1 16:42:50 10° SE 16:47:47 55° ENE 16:52:45 10° N visible
27 Nov 5.1 18:22:53 10° SSW 18:27:07 26° W 18:31:24 10° NW visible
28 Nov 6.2 04:47:31 10° ENE 04:49:34 12° E 04:51:36 10° ESE visible
28 Nov 3.4 06:24:25 10° NNE 06:29:32 72° ESE 06:34:37 10° S visible
28 Nov 3.7 16:06:52 10° ESE 16:11:15 30° ENE 16:15:38 10° N visible
28 Nov 3.9 17:45:09 10° S 17:50:04 50° W 17:55:03 10° NNW visible
29 Nov 4.7 05:47:51 10° NNE 05:52:35 37° E 05:57:17 10° SSE visible
29 Nov 2.9 17:08:08 10° SSE 17:13:13 85° ENE 17:18:21 10° NNW visible
29 Nov 5.7 18:49:41 10° SW 18:52:56 17° W 18:56:12 10° NW visible
30 Nov 5.8 05:11:46 10° NE 05:15:27 20° E 05:19:07 10° SE visible
30 Nov 3.2 16:31:44 10° SE 16:36:33 46° ENE 16:41:24 10° N visible
30 Nov 4.8 18:11:14 10° SSW 18:15:44 32° W 18:20:18 10° NNW visible
